This demonstration page uses our WeatherBlox Daily Observations layout. Learn more.

Left ArrowRight Arrow

Hourly Observations for August 2, 2021

Temp ( °F °C ) Dew Point ( °F °C ) Humidity (%) Winds ( mph kmh ) Pressure ( in mb ) Visibility ( mi km ) Precip ( " mm )
12:15 am 00:15 Clear 63 17 59 15 88 88 NNW 8 13 29.94 1014 10 16 N/A
12:35 am 00:35 Partly Cloudy 63 17 57 14 83 83 N N/A 29.95 1014 10 16 N/A
12:55 am 00:55 Partly Cloudy 63 17 57 14 83 83 N N/A 29.95 1014 10 16 N/A
1:15 am 01:15 Partly Cloudy 61 16 57 14 88 88 NNW 3 6 29.95 1014 10 16 N/A
1:35 am 01:35 Clear 61 16 55 13 83 83 NW 8 13 29.95 1014 10 16 N/A
1:55 am 01:55 Clear 61 16 55 13 83 83 NNW 7 11 29.94 1014 10 16 N/A
2:15 am 02:15 Clear 61 16 55 13 83 83 N 5 7 29.94 1014 10 16 N/A
2:35 am 02:35 Clear 61 16 55 13 83 83 NW 8 13 29.94 1014 10 16 N/A
2:55 am 02:55 Clear 61 16 55 13 83 83 N N/A 29.94 1014 10 16 N/A
3:15 am 03:15 Clear 61 16 55 13 83 83 N N/A 29.94 1014 10 16 N/A
3:35 am 03:35 Clear 59 15 55 13 88 88 SSW 3 6 29.94 1014 10 16 N/A
3:55 am 03:55 Clear 61 16 55 13 83 83 N N/A 29.94 1014 10 16 N/A
4:15 am 04:15 Clear 59 15 55 13 88 88 N N/A 29.95 1014 10 16 N/A
4:35 am 04:35 Clear 61 16 55 13 83 83 N N/A 29.96 1014 10 16 N/A
4:55 am 04:55 Clear 59 15 55 13 88 88 N N/A 29.97 1015 10 16 N/A
5:15 am 05:15 Clear 57 14 55 13 94 94 N N/A 29.97 1015 10 16 N/A
5:35 am 05:35 Clear 55 13 54 12 94 94 N N/A 29.98 1015 10 16 N/A
5:55 am 05:55 Clear 57 14 54 12 88 88 N N/A 29.99 1016 10 16 N/A
6:15 am 06:15 Sunny 55 13 54 12 94 94 W 3 6 30.00 1016 10 16 N/A
6:35 am 06:35 Sunny 55 13 54 12 94 94 N N/A 30.01 1016 10 16 N/A
6:55 am 06:55 Sunny 59 15 54 12 82 82 N N/A 30.01 1016 10 16 N/A
7:15 am 07:15 Sunny 59 15 54 12 82 82 N N/A 30.02 1017 10 16 N/A
7:35 am 07:35 Sunny 61 16 55 13 83 83 N N/A 30.03 1017 10 16 N/A
7:55 am 07:55 Sunny 61 16 55 13 83 83 N N/A 30.04 1017 10 16 N/A
8:15 am 08:15 Sunny 63 17 57 14 83 83 N N/A 30.05 1017 10 16 N/A
8:35 am 08:35 Sunny 63 17 57 14 83 83 N N/A 30.05 1017 10 16 N/A
8:55 am 08:55 Sunny 64 18 57 14 78 78 N N/A 30.05 1018 10 16 N/A
9:15 am 09:15 Partly Cloudy 66 19 57 14 73 73 N 8 13 30.05 1018 10 16 N/A
9:35 am 09:35 Sunny 68 20 57 14 69 69 NNW 17 28 30.05 1018 10 16 N/A
9:55 am 09:55 Sunny 68 20 57 14 69 69 N 16 26 30.05 1018 10 16 N/A
10:15 am 10:15 Sunny 70 21 57 14 64 64 NW 16 26 30.05 1018 10 16 N/A
10:35 am 10:35 Sunny 70 21 57 14 64 64 NNW 16 26 30.06 1018 10 16 N/A
10:55 am 10:55 Sunny 72 22 57 14 61 61 NNW 16 26 30.06 1018 10 16 N/A
11:15 am 11:15 Sunny 72 22 57 14 61 61 NNW 18 30 30.06 1018 10 16 N/A
11:35 am 11:35 Sunny 73 23 55 13 53 53 NNW 14 22 30.06 1018 10 16 N/A
11:55 am 11:55 Sunny 73 23 55 13 53 53 NW 15 24 30.07 1018 10 16 N/A
12:15 pm 12:15 Partly Cloudy 73 23 55 13 53 53 N 14 22 30.06 1018 10 16 N/A
12:35 pm 12:35 Partly Cloudy 73 23 55 13 53 53 N 12 19 30.06 1018 10 16 N/A
12:55 pm 12:55 Partly Cloudy 73 23 55 13 53 53 N 9 15 30.07 1018 10 16 N/A
1:15 pm 13:15 Mostly Cloudy 73 23 55 13 53 53 NNW 8 13 30.06 1018 10 16 N/A
1:35 pm 13:35 Partly Cloudy 75 24 55 13 50 50 N 10 17 30.07 1018 10 16 N/A
1:55 pm 13:55 Mostly Cloudy 73 23 55 13 53 53 NNE 10 17 30.06 1018 10 16 N/A
2:15 pm 14:15 Partly Cloudy 77 25 54 12 44 44 N 13 20 30.06 1018 10 16 N/A
2:35 pm 14:35 Partly Cloudy 77 25 55 13 47 47 N 10 17 30.06 1018 10 16 N/A
2:55 pm 14:55 Mostly Cloudy 77 25 54 12 44 44 NNE 6 9 30.06 1018 10 16 N/A
3:15 pm 15:15 Mostly Cloudy 79 26 55 13 45 45 NNW 12 19 30.05 1018 10 16 N/A
3:35 pm 15:35 Partly Cloudy 77 25 54 12 44 44 NE 3 6 30.05 1018 10 16 N/A
3:55 pm 15:55 Mostly Cloudy 79 26 54 12 42 42 N 9 15 30.05 1018 10 16 N/A
4:15 pm 16:15 Mostly Cloudy 79 26 54 12 42 42 NE 9 15 30.04 1017 10 16 N/A
4:35 pm 16:35 Cloudy 79 26 54 12 42 42 N 10 17 30.05 1018 10 16 N/A
4:55 pm 16:55 Partly Cloudy 79 26 54 12 42 42 NNE 3 6 30.05 1018 10 16 N/A
5:15 pm 17:15 Partly Cloudy 79 26 54 12 42 42 NNE 12 19 30.05 1018 10 16 N/A
5:35 pm 17:35 Partly Cloudy 79 26 52 11 39 39 NNE 10 17 30.05 1018 10 16 N/A
5:55 pm 17:55 Sunny 79 26 52 11 39 39 NE 6 9 30.04 1017 10 16 N/A
6:15 pm 18:15 Sunny 79 26 52 11 39 39 NNE 8 13 30.04 1017 10 16 N/A
6:35 pm 18:35 Sunny 77 25 52 11 42 42 N 5 7 30.04 1017 10 16 N/A
6:55 pm 18:55 Sunny 77 25 52 11 42 42 N 6 9 30.04 1017 10 16 N/A
7:15 pm 19:15 Sunny 77 25 52 11 42 42 N 6 9 30.05 1018 10 16 N/A
7:35 pm 19:35 Sunny 77 25 52 11 42 42 NNE 6 9 30.05 1018 10 16 N/A
7:55 pm 19:55 Sunny 77 25 52 11 42 42 NE 6 9 30.05 1018 10 16 N/A
8:15 pm 20:15 Sunny 75 24 54 12 47 47 ENE 6 9 30.06 1018 10 16 N/A
8:35 pm 20:35 Clear 73 23 55 13 53 53 ESE 3 6 30.07 1018 10 16 N/A
8:55 pm 20:55 Clear 73 23 55 13 53 53 N N/A 30.07 1018 10 16 N/A
9:15 pm 21:15 Clear 72 22 55 13 57 57 N N/A 30.07 1018 10 16 N/A
9:35 pm 21:35 Clear 72 22 57 14 61 61 N N/A 30.08 1019 10 16 N/A
9:55 pm 21:55 Clear 70 21 59 15 69 69 N N/A 30.09 1019 10 16 N/A
10:15 pm 22:15 Clear 68 20 59 15 73 73 N N/A 30.10 1019 10 16 N/A
10:35 pm 22:35 Clear 64 18 59 15 83 83 N N/A 30.11 1020 10 16 N/A
10:55 pm 22:55 Clear 64 18 59 15 83 83 N N/A 30.11 1020 10 16 N/A
11:15 pm 23:15 Clear 63 17 59 15 88 88 N N/A 30.13 1020 10 16 N/A
11:35 pm 23:35 Clear 63 17 59 15 88 88 N N/A 30.13 1020 10 16 N/A
11:55 pm 23:55 Clear 61 16 59 15 94 94 WNW 3 6 30.13 1020 10 16 N/A

Powered by AerisWeather